Preview of NWS' New Version of Forecast
This preview is not operational and should not be used for support decisions.

Regional Weather Roundup (RWR)

Issued by Charleston, SC (CHS)

                            
877 
ASUS42 KCHS 212327
RWRCHS

Regional Weather Roundup
National Weather Service Charleston SC
700 PM EDT THU JUN 21 2018

NOTE: "fair" indicates few or no clouds below 12,000 feet with no
significant weather and/or obstructions to visibility.

Not all stations are quality controlled. Use data with caution,
especially dewpoint observations.

SCZ027-030-031-034>040-042>050-220000-
...Southeast South Carolina...
  
CITY           SKY/WX    TMP DP  RH WIND       PRES   REMARKS
N Charleston   FAIR      95  71  45 W8        29.79S HX 102           
Waterfront Prk   N/A     94  73  50 SW5       29.64S HX 103           
Mount Pleasant FAIR      95  72  46 W7        29.80R HX 103           
Johns Island   FAIR      90  79  70 SW12      29.81R HX 105           
Pinopolis        N/A     93  73  52 W8        29.70S HX 102           
Moncks Corner  FAIR      90  68  48 SW6       29.80R HX  93           
Summerville    FAIR      91  73  55 CALM      29.81R HX 100           
Beaufort MCAS  FAIR      94  72  48 W7        29.81R HX 102           
Beaufort Arpt  FAIR      90  79  70 S8        29.81R HX 105           
Hilton Head Is NOT AVBL                                               
Walterboro     FAIR      91  70  49 SW7       29.82R HX  97           
Allendale      FAIR      93  70  46 CALM      29.80S HX  99           

...Southern Midlands and Pee Dee...
  
CITY           SKY/WX    TMP DP  RH WIND       PRES   REMARKS
Georgetown     FAIR      91  70  49 W6        29.80R HX  97           
Kingstree      FAIR      91  64  40 CALM      29.78S HX  93           
Orangeburg     FAIR      93  68  43 W10       29.80R HX  97           
Barnwell       FAIR      90  72  55 SW3       29.81S HX  96           
Aiken          TSTM      77  72  83 SE14G25   29.85R                  
Manning        FAIR      88  64  45 W3        29.79R                  
Columbia       PTSUNNY   93  69  45 W10       29.78R HX  98           
Sumter         FAIR      92  70  48 SW9       29.76R HX  98           
Florence       FAIR      94  65  38 W12       29.77R HX  96           
Myrtle Beach   FAIR      93  73  52 W7        29.78R HX 102           
N Myrtle Beach FAIR      86  78  77 S8        29.77R HX  98           

$$
 
GAZ063-065-086>088-099>101-113>116-118-119-134>141-150-220000-
...Southeast Georgia...
  
CITY           SKY/WX    TMP DP  RH WIND       PRES   REMARKS
Savannah Arpt  FAIR      93  70  46 W8        29.82S HX  99           
Hunter AAF     FAIR      94  71  46 SW8       29.79S HX 100           
Fort Stewart   FAIR      93  71  47 W5        29.80S HX 100           
Statesboro     FAIR      91  69  48 W6        29.83R HX  95           
Sylvania       FAIR      92  74  54 W5        29.83R HX 101           
Claxton        FAIR      92  77  61 CALM      29.83R HX 106           

...CSRA, Central and far Southeast Georgia...
  
CITY           SKY/WX    TMP DP  RH WIND       PRES   REMARKS
Thomson        PTSUNNY   84  73  69 W6        29.89R HX  90           
Augusta-Bush   FAIR      91  70  49 SW7       29.79R HX  96           
Augusta-Daniel FAIR      92  71  50 SW3       29.82R HX  98           
Swainsboro     FAIR      91  72  52 SW6       29.84S HX  98           
Vidalia        FAIR      90  68  48 W5        29.84S HX  93           
Eastman        FAIR      93  60  32 W9        29.87S HX  92           
Hazlehurst     FAIR      91  71  51 SW7       29.85R HX  97           
Alma           FAIR      89  73  59 W8        29.85R HX  97           
Waycross       FAIR      91  70  49 NW8       29.84R HX  97           
Jesup          FAIR      94  71  47 CALM      29.83R HX 101           
Baxley         FAIR      88  72  58 W10       29.85R HX  94           
Brunswick      FAIR      88  72  58 SW7       29.84R HX  94           
Saint Simons   FAIR      87  72  60 SW9       29.82F HX  93           

$$

SCZ027-028-034-036>038-045-046-048>050-GAZ119-141-220000-
...Lake and Supplemental Coastal Observations...
  
STATION/POSITION TIME  TEMP    WIND        PRES    WAVE   SWELL
                       AIR SEA DIR/SP/G            HT/PER HT/PER/DIR
                 (UTC) (F)     (DEG/KT/KT) (MB)    (FT/S) (FT/S/D)
Winyah Bay       2245   91     250/  5     1009.0R
Lake Murray      2220   91     270/ 10/ 12 1007.8R
ACE Basin NERRS  2245   93     240/  2     1009.0S
Fort Pulaski     2300   87 83  210/  8/ 12 1010.2
Sapelo Island    2300   88     190/ 12     1010.0

$$

ANZ835-935-AMZ111-154-330-350-352-354-370-450-454-472-220000-
...C-MAN and Buoy Observations...
  
STATION/POSITION TIME  TEMP    WIND        PRES    WAVE   SWELL
                       AIR SEA DIR/SP/G            HT/PER HT/PER/DIR
                 (UTC) (F)     (DEG/KT/KT) (MB)    (FT/S) (FT/S/D)
Buoy 41004       2300          210/ 16/ 17 1009.3
Buoy 41008       2250   84 83  180/ 16/ 17 1009.8F   2/ 4
Folly Beach CMAN 2300   86     220/ 12/ 14 1010.0R
Capers Nearshore 2308   85 85  240/ 16/ 21 1008.5R
Fripp Nearshore  2308   84 83  220/ 10/ 14 1009.4R

  
STATION/POSITION TIME  TEMP    WIND        PRES    WAVE   SWELL
                       AIR SEA DIR/SP/G            HT/PER HT/PER/DIR
                 (UTC) (F)     (DEG/KT/KT) (MB)    (FT/S) (FT/S/D)
5E St. Marys GA  2300      81                N/A     2/ 4
Frying Pan Buoy  2310   82 82  210/ 14/ 17 1008.9
Buoy 41025       2310   82 81  220/ 16/ 19 1008.2
Cape Lookout NC  2300          210/ 14/ 17 1008.0R
Buoy 41002       2310      81  210/ 16/ 17 1012.1
Buoy 41010       2310   83 83  200/ 10/ 12 1012.7
St Augustine FL  2300   77 79  240/  7/  8 1011.4F


$$